| time (UTC) | temp F | wind direction | speed knots | gust knots | rain 1hr in | rain 24hr in | rain mn in | humidity % | barometer mb |
| 20260504210752 | 50 | 268 | 3.5 | 7.8 | 0.00 | 0.02 | 0.02 | 84 | 1012.9 |
| 20260504210252 | 51 | 281 | 3.5 | 7.8 | 0.00 | 0.02 | 0.02 | 84 | 1012.9 |
| 20260504205753 | 51 | 266 | 4.3 | 7.8 | 0.00 | 0.02 | 0.02 | 84 | 1013.0 |
| 20260504205252 | 51 | 295 | 4.3 | 6.1 | 0.00 | 0.02 | 0.02 | 84 | 1012.9 |
| 20260504204751 | 51 | 283 | 4.3 | 8.7 | 0.00 | 0.02 | 0.02 | 84 | 1012.9 |
| 20260504204509 | 51 | 290 | 5.2 | 8.7 | 0.00 | 0.02 | 0.02 | 83 | 1012.8 |
| 20260504203751 | 52 | 289 | 3.5 | 7.8 | 0.00 | 0.02 | 0.02 | 83 | 1012.9 |
| 20260504203252 | 52 | 289 | 3.5 | 7.8 | 0.00 | 0.02 | 0.02 | 83 | 1012.9 |
| 20260504202752 | 52 | 293 | 4.3 | 6.1 | 0.00 | 0.02 | 0.02 | 83 | 1012.9 |
| 20260504202251 | 52 | 281 | 4.3 | 6.1 | 0.00 | 0.02 | 0.02 | 83 | 1013.0 |
| 20260504201752 | 53 | 271 | 3.5 | 6.1 | 0.00 | 0.02 | 0.02 | 82 | 1012.9 |
| 20260504201251 | 53 | 271 | 4.3 | 7.8 | 0.00 | 0.02 | 0.02 | 82 | 1012.9 |
| 20260504200751 | 53 | 272 | 4.3 | 7.8 | 0.00 | 0.02 | 0.02 | 82 | 1012.9 |
| 20260504200250 | 53 | 289 | 3.5 | 7.8 | 0.00 | 0.02 | 0.02 | 81 | 1012.9 |
| 20260504195750 | 54 | 276 | 5.2 | 9.6 | 0.00 | 0.02 | 0.02 | 81 | 1012.9 |
| 20260504195250 | 54 | 314 | 5.2 | 9.6 | 0.00 | 0.02 | 0.02 | 81 | 1012.8 |
| 20260504194750 | 54 | 305 | 4.3 | 9.6 | 0.00 | 0.02 | 0.02 | 81 | 1012.8 |
| 20260504194250 | 54 | 331 | 4.3 | 9.6 | 0.00 | 0.02 | 0.02 | 81 | 1012.7 |
| 20260504193750 | 55 | 299 | 5.2 | 9.6 | 0.00 | 0.02 | 0.02 | 82 | 1012.7 |
| 20260504193250 | 55 | 243 | 3.5 | 4.3 | 0.00 | 0.02 | 0.02 | 82 | 1012.6 |
| 20260504192749 | 55 | 237 | 2.6 | 4.3 | 0.00 | 0.02 | 0.02 | 82 | 1012.6 |
| 20260504192250 | 55 | 235 | 1.7 | 5.2 | 0.00 | 0.02 | 0.02 | 82 | 1012.4 |
| 20260504191750 | 55 | 237 | 2.6 | 6.1 | 0.00 | 0.02 | 0.02 | 81 | 1012.4 |
| 20260504191249 | 55 | 233 | 3.5 | 6.1 | 0.00 | 0.02 | 0.02 | 81 | 1012.3 |
| 20260504190749 | 56 | 233 | 3.5 | 6.1 | 0.00 | 0.02 | 0.02 | 81 | 1012.3 |
| 20260504190518 | 56 | 235 | 4.3 | 6.1 | 0.00 | 0.02 | 0.02 | 80 | 1012.2 |
| 20260504185749 | 56 | 233 | 3.5 | 5.2 | 0.00 | 0.02 | 0.02 | 80 | 1012.3 |
| 20260504185249 | 56 | 234 | 2.6 | 6.1 | 0.00 | 0.02 | 0.02 | 81 | 1012.3 |
| 20260504184749 | 56 | 228 | 3.5 | 6.1 | 0.00 | 0.02 | 0.02 | 80 | 1012.3 |
| 20260504184249 | 56 | 223 | 3.5 | 5.2 | 0.00 | 0.02 | 0.02 | 80 | 1012.3 |
| 20260504184013 | 56 | 220 | 2.6 | 7.8 | 0.00 | 0.02 | 0.02 | 80 | 1012.3 |
| 20260504183248 | 56 | 223 | 3.5 | 7.8 | 0.00 | 0.02 | 0.02 | 79 | 1012.3 |
| 20260504182749 | 56 | 223 | 4.3 | 6.1 | 0.00 | 0.02 | 0.02 | 80 | 1012.3 |
| 20260504182248 | 56 | 241 | 1.7 | 5.2 | 0.00 | 0.02 | 0.02 | 79 | 1012.3 |
| 20260504181748 | 57 | 241 | 3.5 | 6.1 | 0.00 | 0.02 | 0.02 | 78 | 1012.3 |
| 20260504181248 | 57 | 243 | 3.5 | 6.1 | 0.00 | 0.02 | 0.02 | 78 | 1012.3 |
| 20260504180748 | 57 | 251 | 4.3 | 6.1 | 0.00 | 0.02 | 0.02 | 78 | 1012.4 |
| 20260504180247 | 57 | 265 | 1.7 | 4.3 | 0.00 | 0.02 | 0.02 | 78 | 1012.3 |
| 20260504175748 | 57 | 265 | 2.6 | 5.2 | 0.00 | 0.02 | 0.02 | 76 | 1012.3 |
| 20260504175247 | 57 | 265 | 2.6 | 5.2 | 0.00 | 0.02 | 0.02 | 77 | 1012.4 |
| 20260504174248 | 57 | 217 | 3.5 | 5.2 | 0.00 | 0.02 | 0.02 | 77 | 1012.4 |
| 20260504173747 | 57 | 210 | 1.7 | 5.2 | 0.00 | 0.02 | 0.02 | 77 | 1012.4 |
| 20260504173247 | 57 | 206 | 3.5 | 5.2 | 0.00 | 0.02 | 0.02 | 77 | 1012.4 |
| 20260504172747 | 57 | 203 | 3.5 | 6.1 | 0.00 | 0.02 | 0.02 | 76 | 1012.4 |
| 20260504172246 | 57 | 212 | 3.5 | 6.1 | 0.00 | 0.02 | 0.02 | 75 | 1012.3 |
| 20260504171748 | 58 | 202 | 4.3 | 6.1 | 0.00 | 0.02 | 0.02 | 76 | 1012.4 |
| 20260504171247 | 58 | 207 | 2.6 | 5.2 | 0.00 | 0.02 | 0.02 | 76 | 1012.4 |
| 20260504170746 | 58 | 206 | 2.6 | 5.2 | 0.00 | 0.02 | 0.02 | 75 | 1012.5 |
| 20260504170246 | 58 | 207 | 3.5 | 5.2 | 0.00 | 0.02 | 0.02 | 74 | 1012.4 |
| 20260504160245 | 60 | 171 | 4.3 | 8.7 | 0.00 | 0.02 | 0.02 | 73 | 1012.5 |
| 20260504150743 | 59 | 193 | 5.2 | 9.6 | 0.00 | 0.02 | 0.02 | 76 | 1012.9 |
| 20260504150243 | 58 | 214 | 4.3 | 8.7 | 0.00 | 0.02 | 0.02 | 75 | 1012.8 |
| 20260504141242 | 58 | 213 | 1.7 | 6.1 | 0.00 | 0.02 | 0.02 | 74 | 1013.2 |
| 20260504140742 | 58 | 213 | 2.6 | 9.6 | 0.00 | 0.02 | 0.02 | 72 | 1013.2 |
| 20260504140243 | 60 | 233 | 3.5 | 9.6 | 0.00 | 0.02 | 0.02 | 71 | 1013.2 |
| 20260504130741 | 59 | 207 | 2.6 | 6.1 | 0.00 | 0.03 | 0.02 | 75 | 1013.5 |
| 20260504130241 | 59 | 221 | 3.5 | 6.1 | 0.00 | 0.03 | 0.02 | 74 | 1013.4 |
| 20260504120239 | 57 | 162 | 1.7 | 6.1 | 0.00 | 0.04 | 0.02 | 75 | 1013.4 |
| 20260504110239 | 54 | 179 | 1.7 | 4.3 | 0.00 | 0.04 | 0.02 | 78 | 1013.6 |
| 20260504100504 | 54 | 134 | 1.7 | 7.8 | 0.01 | 0.05 | 0.02 | 83 | 1013.8 |
| 20260504081731 | 47 | 85 | 0.9 | 2.6 | 0.00 | 0.07 | 0.01 | 95 | 1013.6 |
| 20260504081230 | 47 | 85 | 0.9 | 3.5 | 0.00 | 0.08 | 0.01 | 95 | 1013.5 |
| 20260504080732 | 47 | 85 | 1.7 | 3.5 | 0.00 | 0.08 | 0.01 | 95 | 1013.5 |
| 20260504080450 | 47 | 85 | 1.7 | 3.5 | 0.00 | 0.08 | 0.01 | 95 | 1013.5 |
| 20260504070231 | 46 | 140 | 2.6 | 4.3 | 0.00 | 0.13 | 0.01 | 96 | 1013.1 |
| 20260504060231 | 45 | 20 | 3.5 | 5.2 | 0.00 | 0.16 | 0.01 | 96 | 1012.6 |
| 20260504050729 | 45 | 24 | 3.5 | 5.2 | 0.00 | 0.17 | 0.01 | 96 | 1012.4 |
| 20260504050229 | 45 | 23 | 3.5 | 5.2 | 0.00 | 0.18 | 0.01 | 96 | 1012.4 |
| 20260504045730 | 45 | 38 | 2.6 | 5.2 | 0.00 | 0.19 | 0.01 | 96 | 1012.4 |
| 20260504045229 | 45 | 32 | 2.6 | 6.1 | 0.00 | 0.20 | 0.01 | 96 | 1012.3 |
| 20260504044954 | 45 | 25 | 2.6 | 6.1 | 0.00 | 0.20 | 0.01 | 96 | 1012.3 |
| 20260504044228 | 45 | 0 | 2.6 | 6.1 | 0.00 | 0.21 | 0.01 | 96 | 1012.3 |
| 20260504043951 | 45 | 21 | 3.5 | 6.1 | 0.00 | 0.22 | 0.01 | 96 | 1012.3 |
| 20260504043227 | 45 | 18 | 3.5 | 6.1 | 0.00 | 0.22 | 0.01 | 96 | 1012.3 |
| 20260504042729 | 45 | 16 | 3.5 | 6.1 | 0.00 | 0.23 | 0.01 | 96 | 1012.3 |
| 20260504041728 | 45 | 28 | 2.6 | 6.1 | 0.00 | 0.24 | 0.01 | 96 | 1012.3 |
| 20260504041228 | 45 | 17 | 3.5 | 6.1 | 0.00 | 0.26 | 0.01 | 96 | 1012.2 |
| 20260504040728 | 45 | 39 | 3.5 | 5.2 | 0.00 | 0.27 | 0.01 | 96 | 1012.2 |
| 20260504040228 | 45 | 30 | 3.5 | 6.1 | 0.00 | 0.28 | 0.01 | 96 | 1012.2 |
| 20260504035728 | 45 | 25 | 3.5 | 6.1 | 0.00 | 0.29 | 0.01 | 96 | 1012.1 |
| 20260504035227 | 45 | 16 | 2.6 | 5.2 | 0.00 | 0.31 | 0.01 | 96 | 1012.1 |
| 20260504034728 | 45 | 14 | 4.3 | 5.2 | 0.00 | 0.31 | 0.01 | 96 | 1012.1 |
| 20260504034228 | 45 | 37 | 2.6 | 5.2 | 0.00 | 0.33 | 0.01 | 96 | 1012.0 |
| 20260504033727 | 45 | 31 | 4.3 | 5.2 | 0.00 | 0.34 | 0.01 | 96 | 1011.9 |
| 20260504033229 | 45 | 21 | 3.5 | 5.2 | 0.00 | 0.35 | 0.01 | 96 | 1012.0 |
| 20260504032727 | 45 | 28 | 3.5 | 6.1 | 0.00 | 0.35 | 0.01 | 96 | 1011.9 |
| 20260504032227 | 45 | 37 | 3.5 | 6.1 | 0.00 | 0.37 | 0.01 | 96 | 1011.9 |
| 20260504031727 | 45 | 39 | 2.6 | 5.2 | 0.00 | 0.39 | 0.01 | 96 | 1012.0 |
| 20260504031226 | 45 | 17 | 3.5 | 5.2 | 0.00 | 0.39 | 0.01 | 96 | 1012.1 |
| 20260504030726 | 45 | 16 | 2.6 | 5.2 | 0.00 | 0.40 | 0.01 | 96 | 1012.0 |
| 20260504030226 | 45 | 8 | 3.5 | 7.8 | 0.00 | 0.41 | 0.01 | 96 | 1012.0 |
| 20260504025226 | 45 | 32 | 3.5 | 6.1 | 0.00 | 0.42 | 0.01 | 96 | 1011.8 |
| 20260504024726 | 45 | 27 | 4.3 | 6.1 | 0.00 | 0.43 | 0.01 | 96 | 1011.9 |
| 20260504024227 | 45 | 41 | 3.5 | 5.2 | 0.00 | 0.43 | 0.01 | 96 | 1011.8 |
| 20260504022726 | 45 | 44 | 2.6 | 8.7 | 0.00 | 0.49 | 0.01 | 96 | 1011.9 |
| 20260504022454 | 45 | 8 | 5.2 | 8.7 | 0.01 | 0.51 | 0.01 | 96 | 1011.8 |
| 20260504021726 | 45 | 23 | 3.5 | 7.8 | 0.01 | 0.54 | 0.01 | 96 | 1011.8 |
| 20260504021225 | 45 | 27 | 3.5 | 8.7 | 0.01 | 0.54 | 0.01 | 96 | 1011.9 |
| 20260504020725 | 45 | 18 | 3.5 | 8.7 | 0.01 | 0.55 | 0.01 | 96 | 1011.8 |
| 20260504020225 | 45 | 6 | 3.5 | 8.7 | 0.01 | 0.56 | 0.01 | 96 | 1011.8 |
| 20260504015945 | 45 | 0 | 3.5 | 7.8 | 0.01 | 0.57 | 0.01 | 96 | 1011.8 |
| 20260504015224 | 45 | 0 | 4.3 | 7.8 | 0.01 | 0.57 | 0.01 | 96 | 1011.8 |
| 20260504014731 | 45 | 0 | 3.5 | 8.7 | 0.01 | 0.57 | 0.01 | 96 | 1011.7 |
| 20260504013725 | 45 | 28 | 3.5 | 7.8 | 0.01 | 0.58 | 0.01 | 96 | 1011.8 |
| 20260504013224 | 45 | 27 | 3.5 | 6.1 | 0.01 | 0.58 | 0.01 | 96 | 1011.7 |
| 20260504012724 | 45 | 13 | 3.5 | 6.1 | 0.01 | 0.58 | 0.01 | 96 | 1011.7 |
| 20260504012225 | 45 | 17 | 3.5 | 7.8 | 0.00 | 0.58 | 0.00 | 96 | 1011.8 |
| 20260504011724 | 45 | 13 | 3.5 | 7.8 | 0.00 | 0.58 | 0.00 | 96 | 1011.7 |
| 20260504011223 | 45 | 25 | 2.6 | 7.8 | 0.00 | 0.58 | 0.00 | 96 | 1011.6 |
| 20260504010724 | 45 | 21 | 4.3 | 7.8 | 0.00 | 0.59 | 0.00 | 96 | 1011.6 |
| 20260504010224 | 45 | 28 | 4.3 | 6.1 | 0.00 | 0.59 | 0.00 | 96 | 1011.6 |
| 20260504005723 | 45 | 10 | 3.5 | 6.1 | 0.00 | 0.60 | 0.00 | 96 | 1011.7 |
| 20260504005448 | 45 | 18 | 4.3 | 7.8 | 0.00 | 0.60 | 0.00 | 96 | 1011.6 |
| 20260504004724 | 45 | 24 | 3.5 | 7.8 | 0.00 | 0.60 | 0.00 | 96 | 1011.5 |
| 20260504004223 | 45 | 28 | 3.5 | 8.7 | 0.00 | 0.60 | 0.00 | 96 | 1011.5 |
| 20260504003723 | 45 | 23 | 3.5 | 8.7 | 0.00 | 0.61 | 0.00 | 96 | 1011.4 |
| 20260504003223 | 46 | 18 | 4.3 | 9.6 | 0.00 | 0.61 | 0.00 | 96 | 1011.5 |
| 20260504002723 | 46 | 37 | 4.3 | 9.6 | 0.00 | 0.61 | 0.00 | 96 | 1011.4 |
| 20260504002222 | 46 | 27 | 3.5 | 9.6 | 0.00 | 0.61 | 0.00 | 96 | 1011.4 |
| 20260504001722 | 46 | 49 | 5.2 | 9.6 | 0.00 | 0.61 | 0.00 | 96 | 1011.4 |
| 20260504001441 | 46 | 32 | 5.2 | 9.6 | 0.00 | 0.61 | 0.00 | 96 | 1011.4 |
| 20260504000722 | 46 | 28 | 5.2 | 9.6 | 0.00 | 0.61 | 0.00 | 96 | 1011.4 |
| 20260504000222 | 46 | 31 | 4.3 | 8.7 | 0.00 | 0.61 | 0.00 | 96 | 1011.4 |
| 20260503235722 | 46 | 23 | 3.5 | 9.6 | 0.00 | 0.62 | 0.00 | 96 | 1011.5 |
| 20260503235222 | 46 | 38 | 5.2 | 9.6 | 0.00 | 0.62 | 0.00 | 96 | 1011.4 |
| 20260503234722 | 46 | 25 | 5.2 | 8.7 | 0.00 | 0.62 | 0.00 | 96 | 1011.4 |
| 20260503234441 | 46 | 47 | 5.2 | 10.4 | 0.00 | 0.62 | 0.00 | 96 | 1011.3 |
| 20260503233721 | 46 | 42 | 5.2 | 10.4 | 0.00 | 0.62 | 0.00 | 96 | 1011.4 |
| 20260503233221 | 46 | 42 | 4.3 | 8.7 | 0.00 | 0.63 | 0.00 | 96 | 1011.4 |
| 20260503232721 | 46 | 27 | 5.2 | 8.7 | 0.00 | 0.63 | 0.00 | 96 | 1011.3 |
| 20260503232222 | 46 | 28 | 5.2 | 8.7 | 0.00 | 0.63 | 0.00 | 96 | 1011.3 |
| 20260503231720 | 46 | 13 | 4.3 | 7.8 | 0.00 | 0.63 | 0.00 | 96 | 1011.3 |
| 20260503231447 | 46 | 34 | 3.5 | 10.4 | 0.00 | 0.63 | 0.00 | 96 | 1011.3 |
| 20260503230720 | 46 | 37 | 6.1 | 10.4 | 0.00 | 0.64 | 0.00 | 96 | 1011.3 |
| 20260503230220 | 46 | 30 | 6.1 | 10.4 | 0.00 | 0.64 | 0.00 | 96 | 1011.3 |
| 20260503225720 | 46 | 41 | 5.2 | 10.4 | 0.00 | 0.65 | 0.65 | 96 | 1011.3 |
| 20260503225221 | 46 | 28 | 3.5 | 11.3 | 0.00 | 0.65 | 0.65 | 96 | 1011.2 |
| 20260503224720 | 46 | 1 | 3.5 | 11.3 | 0.00 | 0.66 | 0.65 | 96 | 1011.2 |
| 20260503224220 | 46 | 30 | 6.1 | 10.4 | 0.00 | 0.66 | 0.65 | 96 | 1011.1 |
| 20260503223720 | 46 | 45 | 5.2 | 10.4 | 0.00 | 0.68 | 0.65 | 96 | 1011.1 |
| 20260503223219 | 46 | 0 | 3.5 | 10.4 | 0.00 | 0.69 | 0.65 | 96 | 1011.1 |
| 20260503222720 | 46 | 37 | 7.0 | 10.4 | 0.00 | 0.70 | 0.65 | 96 | 1011.1 |
| 20260503222220 | 46 | 353 | 5.2 | 9.6 | 0.00 | 0.71 | 0.65 | 96 | 1011.1 |
| 20260503221720 | 46 | 0 | 5.2 | 10.4 | 0.00 | 0.72 | 0.65 | 96 | 1011.0 |
| 20260503221220 | 46 | 37 | 6.1 | 10.4 | 0.00 | 0.72 | 0.65 | 96 | 1011.1 |
| 20260503220719 | 46 | 14 | 5.2 | 10.4 | 0.00 | 0.72 | 0.65 | 96 | 1011.1 |
| 20260503220219 | 46 | 41 | 6.1 | 9.6 | 0.00 | 0.72 | 0.65 | 96 | 1011.0 |
| 20260503215719 | 46 | 331 | 3.5 | 8.7 | 0.00 | 0.73 | 0.65 | 96 | 1010.9 |
| 20260503215219 | 46 | 23 | 2.6 | 7.8 | 0.00 | 0.73 | 0.65 | 96 | 1010.9 |
| 20260503214938 | 46 | 45 | 5.2 | 9.6 | 0.00 | 0.74 | 0.65 | 96 | 1011.0 |
| 20260503214219 | 47 | 21 | 6.1 | 9.6 | 0.00 | 0.74 | 0.65 | 96 | 1010.9 |
| 20260503213718 | 47 | 21 | 5.2 | 11.3 | 0.00 | 0.75 | 0.65 | 96 | 1010.8 |
| 20260503213219 | 47 | 8 | 6.1 | 11.3 | 0.00 | 0.76 | 0.65 | 96 | 1010.8 |
| 20260503212719 | 47 | 30 | 6.1 | 10.4 | 0.00 | 0.76 | 0.65 | 96 | 1010.8 |
| 20260503212218 | 47 | 16 | 6.1 | 11.3 | 0.00 | 0.77 | 0.65 | 96 | 1010.8 |
| 20260503211718 | 47 | 23 | 7.0 | 11.3 | 0.00 | 0.77 | 0.65 | 96 | 1010.8 |